Find Starlink 34804

NORAD ID: 65026 Int'l Des: 2025-161 Owner: SPXS Country: US Constellation: starlink operational
LEOCIRCULAR

Current View

Loading 3D Globe...

About Starlink 34804

Description loading...

Upcoming Passes

Passes for default location (London). Set your location on the main map for personalized predictions.

Altitude History

Loading altitude history...

Two-Line Element Set

1 65026U 25161M 26149.64534177 .00022835 00000-0 78044-3 0 9999
2 65026 53.1590 278.2307 0001211 85.8709 274.2430 15.30212875 47732
Epoch: May 29, 2026 • Age: 22 hours

Current Status

Altitude 475.4 km
Velocity 7.63 km/s
Sub-Earth Point 23.06°N, 159.04°W
Launch Date Jul 30, 2025
Age 0.8 years
Type internet

Technical Details

Classification Payload
Mass 575.00 kg
Dry Mass 530.00 kg
Total Mass 575.00 kg
Length 0.30 m
Diameter 4.10 m
Span 29.00 m
Shape Box + pan
Manufacturer SPXS
Bus Type Starlink V2MO
Phase Status In Orbit
Owner/State SPXS/US

Most Searched